Time,TemperatureF,DewpointF,PressureIn,WindDirection,WindDirectionDegrees,WindSpeedMPH,WindSpeedGustMPH,Humidity,HourlyPrecipIn,Conditions,Clouds,dailyrainin,SoftwareType,DateUTC
2013-05-13 00:00:00,57.6,36.4,30.06,SE,146,8.0,17.0,45,0.00,,,0.00,Wunderground v.1.15,2013-05-13 05:00:00,
2013-05-13 00:05:00,57.6,37.0,30.06,SSE,149,8.0,17.0,46,0.00,,,0.00,Wunderground v.1.15,2013-05-13 05:05:00,
2013-05-13 00:10:00,57.6,37.0,30.06,SSE,148,8.0,8.0,46,0.00,,,0.00,Wunderground v.1.15,2013-05-13 05:10:00,
2013-05-13 00:20:00,57.0,37.0,30.07,SSE,148,6.0,17.0,47,0.00,,,0.00,Wunderground v.1.15,2013-05-13 05:20:00,
2013-05-13 00:25:00,56.7,37.2,30.06,SSE,148,5.0,17.0,48,0.00,,,0.00,Wunderground v.1.15,2013-05-13 05:25:00,
2013-05-13 00:35:00,56.2,37.3,30.06,SSE,148,4.0,17.0,49,0.00,,,0.00,Wunderground v.1.15,2013-05-13 05:35:00,
2013-05-13 00:40:00,56.0,37.6,30.06,SSE,148,4.0,17.0,50,0.00,,,0.00,Wunderground v.1.15,2013-05-13 05:40:00,
2013-05-13 00:45:00,55.8,37.9,30.06,SSE,148,5.0,17.0,51,0.00,,,0.00,Wunderground v.1.15,2013-05-13 05:45:00,
2013-05-13 00:50:00,55.8,38.4,30.06,SSE,148,5.0,17.0,52,0.00,,,0.00,Wunderground v.1.15,2013-05-13 05:50:00,
2013-05-13 00:55:00,55.6,38.7,30.07,SSE,148,5.0,17.0,53,0.00,,,0.00,Wunderground v.1.15,2013-05-13 05:55:00,
2013-05-13 01:00:00,55.3,38.9,30.07,SSE,148,4.0,17.0,54,0.00,,,0.00,Wunderground v.1.15,2013-05-13 06:00:00,
2013-05-13 01:10:00,54.8,38.9,30.07,SSE,153,5.0,17.0,55,0.00,,,0.00,Wunderground v.1.15,2013-05-13 06:10:00,
2013-05-13 01:15:00,54.5,38.7,30.06,SSE,158,5.0,17.0,55,0.00,,,0.00,Wunderground v.1.15,2013-05-13 06:15:00,
2013-05-13 01:25:00,54.1,39.2,30.06,SSE,159,6.0,17.0,57,0.00,,,0.00,Wunderground v.1.15,2013-05-13 06:25:00,
2013-05-13 01:30:00,53.9,39.5,30.06,SSE,164,6.0,6.0,58,0.00,,,0.00,Wunderground v.1.15,2013-05-13 06:30:00,
2013-05-13 01:35:00,53.7,39.3,30.06,SSE,165,6.0,17.0,58,0.00,,,0.00,Wunderground v.1.15,2013-05-13 06:35:00,
2013-05-13 01:45:00,53.5,39.5,30.06,South,182,7.0,17.0,59,0.00,,,0.00,Wunderground v.1.15,2013-05-13 06:45:00,
2013-05-13 01:50:00,53.4,39.9,30.06,South,169,6.0,17.0,60,0.00,,,0.00,Wunderground v.1.15,2013-05-13 06:50:00,
2013-05-13 01:55:00,53.3,39.8,30.06,SSE,164,6.0,17.0,60,0.00,,,0.00,Wunderground v.1.15,2013-05-13 06:55:00,
2013-05-13 02:00:00,53.2,40.1,30.06,South,173,6.0,17.0,61,0.00,,,0.00,Wunderground v.1.15,2013-05-13 07:00:00,
2013-05-13 02:05:00,53.1,40.0,30.05,South,173,6.0,17.0,61,0.00,,,0.00,Wunderground v.1.15,2013-05-13 07:05:00,
2013-05-13 02:15:00,53.0,40.3,30.05,South,175,7.0,7.0,62,0.00,,,0.00,Wunderground v.1.15,2013-05-13 07:15:00,
2013-05-13 02:25:00,53.0,40.3,30.05,South,175,6.0,17.0,62,0.00,,,0.00,Wunderground v.1.15,2013-05-13 07:25:00,
2013-05-13 02:30:00,52.9,40.6,30.06,South,177,6.0,6.0,63,0.00,,,0.00,Wunderground v.1.15,2013-05-13 07:30:00,
2013-05-13 02:35:00,52.8,40.5,30.05,South,174,5.0,17.0,63,0.00,,,0.00,Wunderground v.1.15,2013-05-13 07:35:00,
2013-05-13 02:40:00,52.7,40.9,30.05,South,177,5.0,17.0,64,0.00,,,0.00,Wunderground v.1.15,2013-05-13 07:40:00,
2013-05-13 02:50:00,52.6,40.8,30.05,South,184,5.0,5.0,64,0.00,,,0.00,Wunderground v.1.15,2013-05-13 07:50:00,
2013-05-13 02:55:00,52.5,41.1,30.05,South,184,5.0,17.0,65,0.00,,,0.00,Wunderground v.1.15,2013-05-13 07:55:00,
2013-05-13 03:00:00,52.4,41.0,30.05,South,180,5.0,17.0,65,0.00,,,0.00,Wunderground v.1.15,2013-05-13 08:00:00,
2013-05-13 03:05:00,52.4,41.0,30.05,South,178,5.0,17.0,65,0.00,,,0.00,Wunderground v.1.15,2013-05-13 08:05:00,
2013-05-13 03:10:00,52.3,41.3,30.05,South,180,5.0,5.0,66,0.00,,,0.00,Wunderground v.1.15,2013-05-13 08:10:00,
2013-05-13 03:20:00,51.9,41.3,30.05,South,182,5.0,17.0,67,0.00,,,0.00,Wunderground v.1.15,2013-05-13 08:20:00,
2013-05-13 03:30:00,51.6,41.4,30.04,South,180,5.0,17.0,68,0.00,,,0.00,Wunderground v.1.15,2013-05-13 08:30:00,
2013-05-13 03:35:00,51.5,41.3,30.04,South,180,5.0,17.0,68,0.00,,,0.00,Wunderground v.1.15,2013-05-13 08:35:00,
2013-05-13 03:40:00,51.4,41.2,30.04,South,181,5.0,5.0,68,0.00,,,0.00,Wunderground v.1.15,2013-05-13 08:40:00,
2013-05-13 03:45:00,51.4,41.2,30.04,South,182,5.0,17.0,68,0.00,,,0.00,Wunderground v.1.15,2013-05-13 08:45:00,
2013-05-13 03:50:00,51.2,41.4,30.03,South,182,4.0,17.0,69,0.00,,,0.00,Wunderground v.1.15,2013-05-13 08:50:00,
2013-05-13 04:00:00,51.1,41.7,30.03,South,182,3.0,17.0,70,0.00,,,0.00,Wunderground v.1.15,2013-05-13 09:00:00,
2013-05-13 04:05:00,51.0,41.6,30.03,South,182,3.0,17.0,70,0.00,,,0.00,Wunderground v.1.15,2013-05-13 09:05:00,
2013-05-13 04:10:00,50.8,41.7,30.03,South,182,3.0,17.0,71,0.00,,,0.00,Wunderground v.1.15,2013-05-13 09:10:00,
2013-05-13 04:15:00,50.6,41.2,30.03,South,182,3.0,17.0,70,0.00,,,0.00,Wunderground v.1.15,2013-05-13 09:15:00,
2013-05-13 04:25:00,50.3,41.3,30.03,South,182,3.0,17.0,71,0.00,,,0.00,Wunderground v.1.15,2013-05-13 09:25:00,
2013-05-13 04:35:00,50.1,41.4,30.03,South,182,3.0,17.0,72,0.00,,,0.00,Wunderground v.1.15,2013-05-13 09:35:00,
2013-05-13 04:40:00,50.1,41.4,30.03,South,182,4.0,4.0,72,0.00,,,0.00,Wunderground v.1.15,2013-05-13 09:40:00,
2013-05-13 04:45:00,50.1,41.4,30.03,South,182,3.0,17.0,72,0.00,,,0.00,Wunderground v.1.15,2013-05-13 09:45:00,
2013-05-13 04:50:00,50.1,41.4,30.03,South,183,3.0,17.0,72,0.00,,,0.00,Wunderground v.1.15,2013-05-13 09:50:00,
2013-05-13 04:55:00,50.1,41.4,30.02,South,183,3.0,17.0,72,0.00,,,0.00,Wunderground v.1.15,2013-05-13 09:55:00,
2013-05-13 05:05:00,50.1,41.4,30.02,South,183,3.0,17.0,72,0.00,,,0.00,Wunderground v.1.15,2013-05-13 10:05:00,
2013-05-13 05:10:00,50.1,41.4,30.02,South,182,3.0,17.0,72,0.00,,,0.00,Wunderground v.1.15,2013-05-13 10:10:00,
2013-05-13 05:15:00,50.2,41.5,30.02,South,182,4.0,17.0,72,0.00,,,0.00,Wunderground v.1.15,2013-05-13 10:15:00,
2013-05-13 05:20:00,50.2,41.5,30.02,South,182,3.0,17.0,72,0.00,,,0.00,Wunderground v.1.15,2013-05-13 10:20:00,
2013-05-13 05:30:00,50.1,41.4,30.02,South,179,4.0,17.0,72,0.00,,,0.00,Wunderground v.1.15,2013-05-13 10:30:00,
2013-05-13 05:35:00,50.0,41.3,30.01,South,179,4.0,17.0,72,0.00,,,0.00,Wunderground v.1.15,2013-05-13 10:35:00,
2013-05-13 05:40:00,50.0,41.3,30.01,South,178,4.0,17.0,72,0.00,,,0.00,Wunderground v.1.15,2013-05-13 10:40:00,
2013-05-13 05:45:00,50.1,41.4,30.01,South,178,5.0,17.0,72,0.00,,,0.00,Wunderground v.1.15,2013-05-13 10:45:00,
2013-05-13 05:50:00,50.1,41.4,30.01,South,176,5.0,17.0,72,0.00,,,0.00,Wunderground v.1.15,2013-05-13 10:50:00,
2013-05-13 05:55:00,50.1,41.4,30.01,South,173,5.0,17.0,72,0.00,,,0.00,Wunderground v.1.15,2013-05-13 10:55:00,
2013-05-13 06:00:00,50.2,41.5,30.00,South,174,6.0,6.0,72,0.00,,,0.00,Wunderground v.1.15,2013-05-13 11:00:00,
2013-05-13 06:05:00,50.4,41.7,30.00,SSE,167,6.0,7.0,72,0.00,,,0.00,Wunderground v.1.15,2013-05-13 11:05:00,
2013-05-13 06:15:00,50.6,41.5,30.01,SSE,167,7.0,8.0,71,0.00,,,0.00,Wunderground v.1.15,2013-05-13 11:15:00,
2013-05-13 06:20:00,50.7,41.6,30.02,SSE,165,6.0,17.0,71,0.00,,,0.00,Wunderground v.1.15,2013-05-13 11:20:00,
2013-05-13 06:25:00,50.8,41.7,30.02,SSE,163,6.0,17.0,71,0.00,,,0.00,Wunderground v.1.15,2013-05-13 11:25:00,
2013-05-13 06:35:00,50.6,41.9,30.02,SSE,165,5.0,17.0,72,0.00,,,0.00,Wunderground v.1.15,2013-05-13 11:35:00,
2013-05-13 06:40:00,50.5,41.8,30.03,SSE,165,5.0,17.0,72,0.00,,,0.00,Wunderground v.1.15,2013-05-13 11:40:00,
2013-05-13 06:45:00,50.5,41.8,30.03,SSE,166,5.0,17.0,72,0.00,,,0.00,Wunderground v.1.15,2013-05-13 11:45:00,
2013-05-13 06:50:00,50.5,42.2,30.03,SSE,167,4.0,17.0,73,0.00,,,0.00,Wunderground v.1.15,2013-05-13 11:50:00,
2013-05-13 06:55:00,50.8,42.1,30.03,South,173,5.0,17.0,72,0.00,,,0.00,Wunderground v.1.15,2013-05-13 11:55:00,
2013-05-13 07:00:00,51.0,42.3,30.03,South,177,6.0,6.0,72,0.00,,,0.00,Wunderground v.1.15,2013-05-13 12:00:00,
2013-05-13 07:05:00,51.2,42.5,30.03,South,177,6.0,17.0,72,0.00,,,0.00,Wunderground v.1.15,2013-05-13 12:05:00,
2013-05-13 07:10:00,51.4,42.3,30.03,South,176,5.0,17.0,71,0.00,,,0.00,Wunderground v.1.15,2013-05-13 12:10:00,
2013-05-13 07:15:00,51.6,42.5,30.03,South,176,5.0,17.0,71,0.00,,,0.00,Wunderground v.1.15,2013-05-13 12:15:00,
2013-05-13 07:20:00,51.9,42.8,30.03,South,174,6.0,17.0,71,0.00,,,0.00,Wunderground v.1.15,2013-05-13 12:20:00,
2013-05-13 07:25:00,52.3,42.8,30.03,South,174,7.0,17.0,70,0.00,,,0.00,Wunderground v.1.15,2013-05-13 12:25:00,
2013-05-13 07:30:00,52.5,43.0,30.03,South,173,7.0,7.0,70,0.00,,,0.00,Wunderground v.1.15,2013-05-13 12:30:00,
2013-05-13 07:40:00,53.0,43.1,30.03,South,173,7.0,7.0,69,0.00,,,0.00,Wunderground v.1.15,2013-05-13 12:40:00,
2013-05-13 07:45:00,53.3,43.4,30.02,SSE,165,7.0,9.0,69,0.00,,,0.00,Wunderground v.1.15,2013-05-13 12:45:00,
2013-05-13 07:55:00,54.1,43.8,30.02,South,178,7.0,17.0,68,0.00,,,0.00,Wunderground v.1.15,2013-05-13 12:55:00,
2013-05-13 08:00:00,54.4,43.7,30.02,SSE,163,8.0,17.0,67,0.00,,,0.00,Wunderground v.1.15,2013-05-13 13:00:00,
2013-05-13 08:05:00,54.8,44.0,30.02,SSE,155,8.0,17.0,67,0.00,,,0.00,Wunderground v.1.15,2013-05-13 13:05:00,
2013-05-13 08:10:00,55.1,44.3,30.02,SSE,167,8.0,17.0,67,0.00,,,0.00,Wunderground v.1.15,2013-05-13 13:10:00,
2013-05-13 08:15:00,55.5,44.3,30.02,South,182,8.0,17.0,66,0.00,,,0.00,Wunderground v.1.15,2013-05-13 13:15:00,
2013-05-13 08:20:00,55.9,44.7,30.03,SSE,165,8.0,8.0,66,0.00,,,0.00,Wunderground v.1.15,2013-05-13 13:20:00,
2013-05-13 08:25:00,56.3,45.1,30.03,SSE,159,8.0,12.0,66,0.00,,,0.00,Wunderground v.1.15,2013-05-13 13:25:00,
2013-05-13 08:30:00,56.7,44.7,30.03,South,186,8.0,17.0,64,0.00,,,0.00,Wunderground v.1.15,2013-05-13 13:30:00,
2013-05-13 08:35:00,57.2,45.1,30.03,SSE,167,8.0,17.0,64,0.00,,,0.00,Wunderground v.1.15,2013-05-13 13:35:00,
2013-05-13 08:45:00,58.3,45.3,30.02,South,183,7.0,9.0,62,0.00,,,0.00,Wunderground v.1.15,2013-05-13 13:45:00,
2013-05-13 08:50:00,59.2,44.4,30.02,South,172,9.0,17.0,58,0.00,,,0.00,Wunderground v.1.15,2013-05-13 13:50:00,
2013-05-13 08:55:00,59.8,44.1,30.02,South,186,10.0,17.0,56,0.00,,,0.00,Wunderground v.1.15,2013-05-13 13:55:00,
2013-05-13 09:00:00,60.2,44.0,30.02,SSE,168,10.0,10.0,55,0.00,,,0.00,Wunderground v.1.15,2013-05-13 14:00:00,
2013-05-13 09:05:00,60.6,43.9,30.02,SSE,165,10.0,11.0,54,0.00,,,0.00,Wunderground v.1.15,2013-05-13 14:05:00,
2013-05-13 09:10:00,61.0,44.7,30.01,SSE,152,10.0,17.0,55,0.00,,,0.00,Wunderground v.1.15,2013-05-13 14:10:00,
2013-05-13 09:15:00,61.4,44.1,30.01,SSE,150,10.0,17.0,53,0.00,,,0.00,Wunderground v.1.15,2013-05-13 14:15:00,
2013-05-13 09:20:00,61.6,44.3,30.00,SSE,157,12.0,17.0,53,0.00,,,0.00,Wunderground v.1.15,2013-05-13 14:20:00,
2013-05-13 09:25:00,62.0,45.2,30.00,SSE,156,11.0,17.0,54,0.00,,,0.00,Wunderground v.1.15,2013-05-13 14:25:00,
2013-05-13 09:35:00,62.7,44.8,29.99,SSW,192,12.0,17.0,52,0.00,,,0.00,Wunderground v.1.15,2013-05-13 14:35:00,
2013-05-13 09:40:00,62.7,44.3,29.99,SSE,158,12.0,12.0,51,0.00,,,0.00,Wunderground v.1.15,2013-05-13 14:40:00,
2013-05-13 09:50:00,63.2,45.3,29.99,SSE,167,12.0,17.0,52,0.00,,,0.00,Wunderground v.1.15,2013-05-13 14:50:00,
2013-05-13 09:55:00,63.5,45.6,29.99,SSW,196,11.0,17.0,52,0.00,,,0.00,Wunderground v.1.15,2013-05-13 14:55:00,
2013-05-13 10:00:00,63.8,45.3,29.99,South,186,11.0,11.0,51,0.00,,,0.00,Wunderground v.1.15,2013-05-13 15:00:00,
2013-05-13 10:10:00,64.5,46.0,29.99,South,190,9.0,17.0,51,0.00,,,0.00,Wunderground v.1.15,2013-05-13 15:10:00,
2013-05-13 10:15:00,64.7,45.6,29.99,SSE,162,9.0,17.0,50,0.00,,,0.00,Wunderground v.1.15,2013-05-13 15:15:00,
2013-05-13 10:20:00,64.9,45.8,29.99,South,184,9.0,17.0,50,0.00,,,0.00,Wunderground v.1.15,2013-05-13 15:20:00,
2013-05-13 10:25:00,65.3,47.2,29.99,SSW,207,9.0,17.0,52,0.00,,,0.00,Wunderground v.1.15,2013-05-13 15:25:00,
2013-05-13 10:30:00,65.6,46.5,29.99,South,169,9.0,9.0,50,0.00,,,0.00,Wunderground v.1.15,2013-05-13 15:30:00,
2013-05-13 10:35:00,65.8,46.6,29.99,SSE,167,9.0,12.0,50,0.00,,,0.00,Wunderground v.1.15,2013-05-13 15:35:00,
2013-05-13 10:45:00,66.3,47.6,29.98,SSE,165,9.0,17.0,51,0.00,,,0.00,Wunderground v.1.15,2013-05-13 15:45:00,
2013-05-13 10:55:00,66.8,47.0,29.98,SSW,203,9.0,17.0,49,0.00,,,0.00,Wunderground v.1.15,2013-05-13 15:55:00,
2013-05-13 11:00:00,67.2,47.4,29.98,SSE,152,10.0,17.0,49,0.00,,,0.00,Wunderground v.1.15,2013-05-13 16:00:00,
2013-05-13 11:05:00,67.6,48.3,29.98,South,176,9.0,17.0,50,0.00,,,0.00,Wunderground v.1.15,2013-05-13 16:05:00,
2013-05-13 11:10:00,67.8,48.5,29.98,South,190,9.0,17.0,50,0.00,,,0.00,Wunderground v.1.15,2013-05-13 16:10:00,
2013-05-13 11:20:00,68.3,47.8,29.98,South,173,9.0,17.0,48,0.00,,,0.00,Wunderground v.1.15,2013-05-13 16:20:00,
2013-05-13 11:25:00,68.7,48.2,29.97,SSE,165,9.0,17.0,48,0.00,,,0.00,Wunderground v.1.15,2013-05-13 16:25:00,
2013-05-13 11:30:00,69.2,48.7,29.97,South,173,9.0,9.0,48,0.00,,,0.00,Wunderground v.1.15,2013-05-13 16:30:00,
2013-05-13 11:35:00,69.7,48.6,29.97,SE,144,9.0,11.0,47,0.00,,,0.00,Wunderground v.1.15,2013-05-13 16:35:00,
2013-05-13 11:40:00,70.1,50.0,29.97,South,170,9.0,17.0,49,0.00,,,0.00,Wunderground v.1.15,2013-05-13 16:40:00,
2013-05-13 11:50:00,71.0,48.6,29.96,South,173,10.0,17.0,45,0.00,,,0.00,Wunderground v.1.15,2013-05-13 16:50:00,
2013-05-13 12:00:00,71.3,48.9,29.96,SSE,148,10.0,10.0,45,0.00,,,0.00,Wunderground v.1.15,2013-05-13 17:00:00,
2013-05-13 12:05:00,72.1,48.4,29.96,South,173,9.0,17.0,43,0.00,,,0.00,Wunderground v.1.15,2013-05-13 17:05:00,
2013-05-13 12:10:00,72.1,48.4,29.96,SE,144,10.0,17.0,43,0.00,,,0.00,Wunderground v.1.15,2013-05-13 17:10:00,
2013-05-13 12:15:00,72.4,49.3,29.96,SSE,157,11.0,17.0,44,0.00,,,0.00,Wunderground v.1.15,2013-05-13 17:15:00,
2013-05-13 12:25:00,73.1,49.3,29.95,SSE,149,11.0,17.0,43,0.00,,,0.00,Wunderground v.1.15,2013-05-13 17:25:00,
2013-05-13 12:30:00,73.3,48.2,29.95,South,187,11.0,11.0,41,0.00,,,0.00,Wunderground v.1.15,2013-05-13 17:30:00,
2013-05-13 12:35:00,73.7,49.2,29.95,SSE,163,11.0,12.0,42,0.00,,,0.00,Wunderground v.1.15,2013-05-13 17:35:00,
2013-05-13 12:40:00,74.1,49.5,29.94,SSE,160,10.0,10.0,42,0.00,,,0.00,Wunderground v.1.15,2013-05-13 17:40:00,
2013-05-13 12:45:00,74.6,49.3,29.94,South,169,10.0,17.0,41,0.00,,,0.00,Wunderground v.1.15,2013-05-13 17:45:00,
2013-05-13 12:55:00,75.2,49.9,29.93,South,171,10.0,17.0,41,0.00,,,0.00,Wunderground v.1.15,2013-05-13 17:55:00,
2013-05-13 13:05:00,75.7,50.3,29.93,SSE,163,10.0,17.0,41,0.00,,,0.00,Wunderground v.1.15,2013-05-13 18:05:00,
2013-05-13 13:10:00,76.0,49.2,29.92,SSE,158,10.0,17.0,39,0.00,,,0.00,Wunderground v.1.15,2013-05-13 18:10:00,
2013-05-13 13:15:00,76.3,48.8,29.92,South,186,11.0,17.0,38,0.00,,,0.00,Wunderground v.1.15,2013-05-13 18:15:00,
2013-05-13 13:20:00,76.5,48.3,29.91,SSW,195,12.0,17.0,37,0.00,,,0.00,Wunderground v.1.15,2013-05-13 18:20:00,
2013-05-13 13:25:00,76.6,47.6,29.91,SSE,159,14.0,17.0,36,0.00,,,0.00,Wunderground v.1.15,2013-05-13 18:25:00,
2013-05-13 13:35:00,77.2,48.9,29.91,SSW,192,12.0,17.0,37,0.00,,,0.00,Wunderground v.1.15,2013-05-13 18:35:00,
2013-05-13 13:40:00,77.6,47.8,29.91,SSE,159,13.0,17.0,35,0.00,,,0.00,Wunderground v.1.15,2013-05-13 18:40:00,
2013-05-13 13:45:00,77.6,47.0,29.91,South,171,14.0,17.0,34,0.00,,,0.00,Wunderground v.1.15,2013-05-13 18:45:00,
2013-05-13 13:50:00,78.0,47.4,29.91,SE,144,12.0,17.0,34,0.00,,,0.00,Wunderground v.1.15,2013-05-13 18:50:00,
2013-05-13 14:00:00,78.4,47.7,29.90,SSE,162,13.0,13.0,34,0.00,,,0.00,Wunderground v.1.15,2013-05-13 19:00:00,
2013-05-13 14:10:00,79.4,47.8,29.90,South,177,11.0,11.0,33,0.00,,,0.00,Wunderground v.1.15,2013-05-13 19:10:00,
2013-05-13 14:15:00,79.6,46.3,29.90,SSE,166,11.0,14.0,31,0.00,,,0.00,Wunderground v.1.15,2013-05-13 19:15:00,
2013-05-13 14:20:00,79.5,45.3,29.90,South,174,13.0,13.0,30,0.00,,,0.00,Wunderground v.1.15,2013-05-13 19:20:00,
2013-05-13 14:25:00,79.6,46.3,29.90,SSE,155,13.0,14.0,31,0.00,,,0.00,Wunderground v.1.15,2013-05-13 19:25:00,
2013-05-13 14:30:00,79.7,45.5,29.89,South,182,13.0,13.0,30,0.00,,,0.00,Wunderground v.1.15,2013-05-13 19:30:00,
2013-05-13 14:40:00,80.1,47.6,29.89,SSW,205,12.0,12.0,32,0.00,,,0.00,Wunderground v.1.15,2013-05-13 19:40:00,
2013-05-13 14:45:00,80.5,46.2,29.88,SSW,192,12.0,14.0,30,0.00,,,0.00,Wunderground v.1.15,2013-05-13 19:45:00,
2013-05-13 14:50:00,80.3,46.0,29.88,SSE,155,13.0,17.0,30,0.00,,,0.00,Wunderground v.1.15,2013-05-13 19:50:00,
2013-05-13 15:00:00,80.7,46.4,29.88,SSE,157,15.0,17.0,30,0.00,,,0.00,Wunderground v.1.15,2013-05-13 20:00:00,
2013-05-13 15:05:00,81.2,45.9,29.88,South,178,13.0,17.0,29,0.00,,,0.00,Wunderground v.1.15,2013-05-13 20:05:00,
2013-05-13 15:15:00,81.6,47.2,29.88,South,183,12.0,14.0,30,0.00,,,0.00,Wunderground v.1.15,2013-05-13 20:15:00,
2013-05-13 15:20:00,81.8,43.6,29.87,SSE,165,12.0,17.0,26,0.00,,,0.00,Wunderground v.1.15,2013-05-13 20:20:00,
2013-05-13 15:25:00,81.6,43.4,29.87,SSE,158,14.0,22.0,26,0.00,,,0.00,Wunderground v.1.15,2013-05-13 20:25:00,
2013-05-13 15:30:00,81.6,42.4,29.86,SSE,159,14.0,14.0,25,0.00,,,0.00,Wunderground v.1.15,2013-05-13 20:30:00,
2013-05-13 15:35:00,82.0,42.7,29.86,SSE,165,14.0,19.0,25,0.00,,,0.00,Wunderground v.1.15,2013-05-13 20:35:00,
2013-05-13 15:40:00,82.0,44.7,29.86,South,176,13.0,13.0,27,0.00,,,0.00,Wunderground v.1.15,2013-05-13 20:40:00,
2013-05-13 15:50:00,82.4,45.1,29.86,SSE,161,11.0,17.0,27,0.00,,,0.00,Wunderground v.1.15,2013-05-13 20:50:00,
2013-05-13 15:55:00,82.3,45.0,29.86,South,190,12.0,17.0,27,0.00,,,0.00,Wunderground v.1.15,2013-05-13 20:55:00,
2013-05-13 16:05:00,82.3,45.0,29.85,SSW,202,14.0,17.0,27,0.00,,,0.00,Wunderground v.1.15,2013-05-13 21:05:00,
2013-05-13 16:10:00,82.3,45.9,29.85,South,187,13.0,17.0,28,0.00,,,0.00,Wunderground v.1.15,2013-05-13 21:10:00,
2013-05-13 16:15:00,82.5,47.0,29.85,South,169,13.0,17.0,29,0.00,,,0.00,Wunderground v.1.15,2013-05-13 21:15:00,
2013-05-13 16:25:00,82.8,47.3,29.84,SSW,198,13.0,17.0,29,0.00,,,0.00,Wunderground v.1.15,2013-05-13 21:25:00,
2013-05-13 16:30:00,83.0,48.4,29.84,South,190,13.0,13.0,30,0.00,,,0.00,Wunderground v.1.15,2013-05-13 21:30:00,
2013-05-13 16:35:00,83.0,47.5,29.84,South,169,12.0,17.0,29,0.00,,,0.00,Wunderground v.1.15,2013-05-13 21:35:00,
2013-05-13 16:40:00,83.1,47.5,29.84,South,176,12.0,12.0,29,0.00,,,0.00,Wunderground v.1.15,2013-05-13 21:40:00,
2013-05-13 16:45:00,83.2,46.7,29.83,South,178,12.0,14.0,28,0.00,,,0.00,Wunderground v.1.15,2013-05-13 21:45:00,
2013-05-13 16:55:00,83.5,47.9,29.83,SSE,167,12.0,18.0,29,0.00,,,0.00,Wunderground v.1.15,2013-05-13 21:55:00,
2013-05-13 17:00:00,83.5,48.8,29.83,SSW,203,12.0,17.0,30,0.00,,,0.00,Wunderground v.1.15,2013-05-13 22:00:00,
2013-05-13 17:10:00,83.4,47.8,29.83,SSE,161,12.0,17.0,29,0.00,,,0.00,Wunderground v.1.15,2013-05-13 22:10:00,
2013-05-13 17:15:00,83.3,49.5,29.83,South,189,12.0,17.0,31,0.00,,,0.00,Wunderground v.1.15,2013-05-13 22:15:00,
2013-05-13 17:20:00,83.2,48.5,29.83,SSW,195,12.0,17.0,30,0.00,,,0.00,Wunderground v.1.15,2013-05-13 22:20:00,
2013-05-13 17:30:00,83.0,49.2,29.83,South,190,13.0,13.0,31,0.00,,,0.00,Wunderground v.1.15,2013-05-13 22:30:00,
2013-05-13 17:35:00,82.9,49.2,29.83,South,180,13.0,17.0,31,0.00,,,0.00,Wunderground v.1.15,2013-05-13 22:35:00,
2013-05-13 17:40:00,82.8,49.9,29.82,SSW,197,13.0,13.0,32,0.00,,,0.00,Wunderground v.1.15,2013-05-13 22:40:00,
2013-05-13 17:45:00,82.8,49.9,29.82,South,176,12.0,17.0,32,0.00,,,0.00,Wunderground v.1.15,2013-05-13 22:45:00,
2013-05-13 17:50:00,82.9,51.6,29.82,SSW,211,12.0,12.0,34,0.00,,,0.00,Wunderground v.1.15,2013-05-13 22:50:00,
2013-05-13 18:00:00,82.7,50.7,29.82,SSW,196,11.0,17.0,33,0.00,,,0.00,Wunderground v.1.15,2013-05-13 23:00:00,
2013-05-13 18:10:00,82.5,50.5,29.81,South,190,11.0,17.0,33,0.00,,,0.00,Wunderground v.1.15,2013-05-13 23:10:00,
2013-05-13 18:15:00,82.4,51.2,29.81,SSE,161,11.0,17.0,34,0.00,,,0.00,Wunderground v.1.15,2013-05-13 23:15:00,
2013-05-13 18:20:00,82.1,50.9,29.81,South,190,10.0,17.0,34,0.00,,,0.00,Wunderground v.1.15,2013-05-13 23:20:00,
2013-05-13 18:25:00,82.1,50.9,29.81,South,190,11.0,17.0,34,0.00,,,0.00,Wunderground v.1.15,2013-05-13 23:25:00,
2013-05-13 18:30:00,81.9,51.6,29.81,SSW,192,11.0,11.0,35,0.00,,,0.00,Wunderground v.1.15,2013-05-13 23:30:00,
2013-05-13 18:40:00,81.9,51.6,29.80,South,171,11.0,17.0,35,0.00,,,0.00,Wunderground v.1.15,2013-05-13 23:40:00,
2013-05-13 18:45:00,81.8,51.5,29.80,SSE,163,10.0,17.0,35,0.00,,,0.00,Wunderground v.1.15,2013-05-13 23:45:00,
2013-05-13 18:50:00,81.7,52.1,29.80,South,178,11.0,17.0,36,0.00,,,0.00,Wunderground v.1.15,2013-05-13 23:50:00,
2013-05-13 18:55:00,81.6,52.1,29.80,South,188,11.0,17.0,36,0.00,,,0.00,Wunderground v.1.15,2013-05-13 23:55:00,
2013-05-13 19:05:00,81.2,50.9,29.80,South,190,11.0,17.0,35,0.00,,,0.00,Wunderground v.1.15,2013-05-14 00:05:00,
2013-05-13 19:15:00,80.9,51.4,29.79,SSW,202,11.0,17.0,36,0.00,,,0.00,Wunderground v.1.15,2013-05-14 00:15:00,
2013-05-13 19:20:00,80.8,51.4,29.79,SSW,196,11.0,17.0,36,0.00,,,0.00,Wunderground v.1.15,2013-05-14 00:20:00,
2013-05-13 19:25:00,80.7,52.0,29.79,South,184,11.0,17.0,37,0.00,,,0.00,Wunderground v.1.15,2013-05-14 00:25:00,
2013-05-13 19:30:00,80.4,51.7,29.79,South,190,11.0,11.0,37,0.00,,,0.00,Wunderground v.1.15,2013-05-14 00:30:00,
2013-05-13 19:35:00,80.2,51.6,29.79,South,186,10.0,17.0,37,0.00,,,0.00,Wunderground v.1.15,2013-05-14 00:35:00,
2013-05-13 19:45:00,79.8,51.2,29.79,South,180,10.0,17.0,37,0.00,,,0.00,Wunderground v.1.15,2013-05-14 00:45:00,
2013-05-13 19:50:00,79.7,51.1,29.79,South,188,10.0,17.0,37,0.00,,,0.00,Wunderground v.1.15,2013-05-14 00:50:00,
2013-05-13 19:55:00,79.5,51.7,29.79,South,175,10.0,17.0,38,0.00,,,0.00,Wunderground v.1.15,2013-05-14 00:55:00,
2013-05-13 20:05:00,79.3,51.5,29.79,South,173,10.0,17.0,38,0.00,,,0.00,Wunderground v.1.15,2013-05-14 01:05:00,
2013-05-13 20:10:00,79.1,52.0,29.79,SSW,194,9.0,17.0,39,0.00,,,0.00,Wunderground v.1.15,2013-05-14 01:10:00,
2013-05-13 20:15:00,78.9,51.8,29.79,SSW,205,9.0,17.0,39,0.00,,,0.00,Wunderground v.1.15,2013-05-14 01:15:00,
2013-05-13 20:20:00,78.6,52.3,29.78,South,186,10.0,10.0,40,0.00,,,0.00,Wunderground v.1.15,2013-05-14 01:20:00,
2013-05-13 20:25:00,78.3,52.7,29.79,SSW,196,10.0,12.0,41,0.00,,,0.00,Wunderground v.1.15,2013-05-14 01:25:00,
2013-05-13 20:30:00,78.1,52.5,29.79,SSW,201,10.0,10.0,41,0.00,,,0.00,Wunderground v.1.15,2013-05-14 01:30:00,
2013-05-13 20:35:00,77.9,53.0,29.78,South,171,10.0,11.0,42,0.00,,,0.00,Wunderground v.1.15,2013-05-14 01:35:00,
2013-05-13 20:40:00,77.7,52.8,29.78,South,186,10.0,17.0,42,0.00,,,0.00,Wunderground v.1.15,2013-05-14 01:40:00,
2013-05-13 20:45:00,77.4,53.1,29.78,South,175,10.0,17.0,43,0.00,,,0.00,Wunderground v.1.15,2013-05-14 01:45:00,
2013-05-13 20:55:00,76.9,53.3,29.78,SSE,168,8.0,17.0,44,0.00,,,0.00,Wunderground v.1.15,2013-05-14 01:55:00,
2013-05-13 21:00:00,76.6,53.7,29.79,South,186,8.0,17.0,45,0.00,,,0.00,Wunderground v.1.15,2013-05-14 02:00:00,
2013-05-13 21:10:00,76.2,53.9,29.79,South,181,8.0,8.0,46,0.00,,,0.00,Wunderground v.1.15,2013-05-14 02:10:00,
2013-05-13 21:15:00,75.9,53.6,29.78,South,186,8.0,17.0,46,0.00,,,0.00,Wunderground v.1.15,2013-05-14 02:15:00,
2013-05-13 21:20:00,75.7,54.6,29.78,South,190,8.0,17.0,48,0.00,,,0.00,Wunderground v.1.15,2013-05-14 02:20:00,
2013-05-13 21:25:00,75.3,54.8,29.78,South,179,8.0,17.0,49,0.00,,,0.00,Wunderground v.1.15,2013-05-14 02:25:00,
2013-05-13 21:30:00,75.2,54.7,29.78,SSE,154,8.0,8.0,49,0.00,,,0.00,Wunderground v.1.15,2013-05-14 02:30:00,
2013-05-13 21:35:00,75.0,55.1,29.78,South,171,9.0,9.0,50,0.00,,,0.00,Wunderground v.1.15,2013-05-14 02:35:00,
2013-05-13 21:40:00,74.7,55.4,29.79,South,180,9.0,17.0,51,0.00,,,0.00,Wunderground v.1.15,2013-05-14 02:40:00,
2013-05-13 21:45:00,74.6,55.3,29.78,South,181,9.0,17.0,51,0.00,,,0.00,Wunderground v.1.15,2013-05-14 02:45:00,
2013-05-13 21:50:00,74.4,55.6,29.78,South,173,9.0,9.0,52,0.00,,,0.00,Wunderground v.1.15,2013-05-14 02:50:00,
2013-05-13 22:00:00,74.0,55.8,29.79,South,190,8.0,8.0,53,0.00,,,0.00,Wunderground v.1.15,2013-05-14 03:00:00,
2013-05-13 22:10:00,73.7,56.0,29.79,SSW,199,9.0,17.0,54,0.00,,,0.00,Wunderground v.1.15,2013-05-14 03:10:00,
2013-05-13 22:15:00,73.5,56.3,29.79,South,186,8.0,17.0,55,0.00,,,0.00,Wunderground v.1.15,2013-05-14 03:15:00,
2013-05-13 22:20:00,73.4,56.2,29.78,South,169,8.0,17.0,55,0.00,,,0.00,Wunderground v.1.15,2013-05-14 03:20:00,
2013-05-13 22:25:00,73.3,56.2,29.79,SSW,192,8.0,17.0,55,0.00,,,0.00,Wunderground v.1.15,2013-05-14 03:25:00,
2013-05-13 22:30:00,73.1,56.5,29.79,South,185,8.0,17.0,56,0.00,,,0.00,Wunderground v.1.15,2013-05-14 03:30:00,
2013-05-13 22:35:00,72.9,56.3,29.79,South,184,8.0,17.0,56,0.00,,,0.00,Wunderground v.1.15,2013-05-14 03:35:00,
2013-05-13 22:40:00,72.9,56.3,29.79,South,181,8.0,8.0,56,0.00,,,0.00,Wunderground v.1.15,2013-05-14 03:40:00,
2013-05-13 22:45:00,72.8,56.2,29.79,South,188,9.0,9.0,56,0.00,,,0.00,Wunderground v.1.15,2013-05-14 03:45:00,
2013-05-13 22:50:00,72.7,56.6,29.79,SSW,192,9.0,17.0,57,0.00,,,0.00,Wunderground v.1.15,2013-05-14 03:50:00,
2013-05-13 23:00:00,72.5,56.4,29.79,South,173,8.0,8.0,57,0.00,,,0.00,Wunderground v.1.15,2013-05-14 04:00:00,
2013-05-13 23:05:00,72.2,56.6,29.78,South,188,8.0,17.0,58,0.00,,,0.00,Wunderground v.1.15,2013-05-14 04:05:00,
2013-05-13 23:10:00,71.9,56.3,29.78,South,190,7.0,7.0,58,0.00,,,0.00,Wunderground v.1.15,2013-05-14 04:10:00,
2013-05-13 23:15:00,71.6,56.5,29.78,South,182,6.0,17.0,59,0.00,,,0.00,Wunderground v.1.15,2013-05-14 04:15:00,
2013-05-13 23:20:00,71.4,56.3,29.78,SSW,196,6.0,17.0,59,0.00,,,0.00,Wunderground v.1.15,2013-05-14 04:20:00,
2013-05-13 23:25:00,71.2,56.6,29.78,SSW,196,6.0,17.0,60,0.00,,,0.00,Wunderground v.1.15,2013-05-14 04:25:00,
2013-05-13 23:30:00,71.3,56.7,29.78,South,188,7.0,7.0,60,0.00,,,0.00,Wunderground v.1.15,2013-05-14 04:30:00,
2013-05-13 23:35:00,71.4,56.3,29.78,South,186,7.0,17.0,59,0.00,,,0.00,Wunderground v.1.15,2013-05-14 04:35:00,
2013-05-13 23:40:00,71.4,56.8,29.78,SSW,192,7.0,17.0,60,0.00,,,0.00,Wunderground v.1.15,2013-05-14 04:40:00,
2013-05-13 23:45:00,71.3,56.7,29.78,South,191,7.0,17.0,60,0.00,,,0.00,Wunderground v.1.15,2013-05-14 04:45:00,
2013-05-13 23:50:00,71.1,56.5,29.78,South,186,7.0,7.0,60,0.00,,,0.00,Wunderground v.1.15,2013-05-14 04:50:00,